Location: Unspecified
(0.0000°N, 0.0000°E)
Time: 17:50:54
(UTC+00:00)

Vanguard 3 - All Passes

Search period start: 18 January 2020 00:00
Search period end: 28 January 2020 00:00
Orbit: 508 x 3263 km, 33.3° (Epoch: 17 January)

Date Brightness Start Highest point End Pass type
(mag) Time Alt. Az. Time Alt. Az. Time Alt. Az.
18 Jan - 02:14:19 10° N 02:15:33 11° NNE 02:16:42 10° NE night (unlit)
18 Jan - 04:23:48 10° WNW 04:27:38 68° SW 04:31:23 10° SE visible
18 Jan - 13:18:33 10° SSW 13:31:20 35° SE 13:48:11 10° E daylight
18 Jan - 15:30:40 10° SW 15:48:25 83° SE 16:08:05 10° ENE daylight
18 Jan - 17:47:38 10° WSW 18:06:06 46° NW 18:22:05 10° NE daylight
18 Jan - 20:14:04 10° WNW 20:24:19 17° NNW 20:32:39 10° N visible
19 Jan - 03:09:52 10° NW 03:14:07 36° NNE 03:17:32 10° E visible
19 Jan - 05:23:26 10° WSW 05:25:32 14° SSW 05:27:47 10° S visible
19 Jan - 12:05:45 10° S 12:14:36 21° SSE 12:26:17 10° ESE daylight
19 Jan - 14:15:54 10° SW 14:31:10 59° SE 14:50:44 10° ENE daylight
19 Jan - 16:30:03 10° WSW 16:48:32 66° NW 17:07:09 10° NE daylight
19 Jan - 18:51:12 10° W 19:06:43 28° NNW 19:19:32 10° NNE visible
20 Jan - 01:56:15 10° NNW 01:59:57 17° NNE 02:02:52 10° ENE night (unlit)
20 Jan - 04:07:59 10° WNW 04:11:53 43° SW 04:15:24 10° SE visible
20 Jan - 10:57:21 10° SSE 10:58:03 10° SSE 10:58:44 10° SSE daylight
20 Jan - 13:02:08 10° SSW 13:14:26 39° SE 13:31:33 10° E daylight
20 Jan - 15:14:07 10° SW 15:31:02 90° NW 15:51:07 10° NE daylight
20 Jan - 17:31:14 10° W 17:48:59 42° NNW 18:05:18 10° NNE daylight
20 Jan - 19:58:10 10° WNW 20:08:10 16° NNW 20:16:30 10° NNE visible
21 Jan - 00:43:04 10° N 00:45:01 11° NNE 00:46:45 10° NNE night (unlit)
21 Jan - 02:53:23 10° NW 02:58:25 56° NNE 03:02:07 10° ESE visible
21 Jan - 11:49:27 10° SSW 11:58:10 23° SE 12:10:04 10° E daylight
21 Jan - 13:59:27 10° SW 14:13:56 65° SE 14:33:45 10° ENE daylight
21 Jan - 16:13:37 10° WSW 16:31:14 60° NW 16:50:10 10° NE daylight
21 Jan - 18:35:09 10° WNW 18:50:05 26° NNW 19:02:57 10° NNE visible
21 Jan - 21:08:26 10° NNW 21:10:23 10° NNW 21:12:15 10° N visible
22 Jan - 01:38:58 10° NNW 01:44:20 26° NNE 01:48:06 10° E night (unlit)
22 Jan - 03:52:16 10° W 03:56:04 29° SW 03:59:20 10° SSE visible
22 Jan - 10:40:16 10° SSE 10:42:05 10° SSE 10:44:04 10° SE daylight
22 Jan - 12:45:47 10° SSW 12:57:31 42° SE 13:14:45 10° ENE daylight
22 Jan - 14:57:43 10° WSW 15:13:42 82° NW 15:33:59 10° NE daylight
22 Jan - 17:15:03 10° W 17:31:59 38° NNW 17:48:25 10° NNE daylight
22 Jan - 19:42:17 10° NW 19:52:07 16° NNW 20:00:27 10° NNE visible
23 Jan - 00:24:26 10° NNW 00:29:27 17° NNE 00:33:13 10° ENE night (unlit)
23 Jan - 02:36:56 10° NW 02:42:39 85° NNE 02:46:33 10° SE night (unlit)
23 Jan - 11:33:12 10° SSW 11:41:41 24° SE 11:53:43 10° E daylight
23 Jan - 13:43:07 10° SW 13:56:46 72° SE 14:16:37 10° ENE daylight
23 Jan - 15:57:22 10° WSW 16:14:02 53° NNW 16:33:01 10° NE daylight
23 Jan - 18:19:18 10° WNW 18:33:34 24° NNW 18:46:21 10° NNE visible
23 Jan - 20:50:20 10° NNW 20:54:44 11° N 20:58:39 10° N visible
23 Jan - 23:09:19 10° NNW 23:13:43 13° N 23:17:18 10° NE night (unlit)
24 Jan - 01:21:51 10° NW 01:28:40 37° NNE 01:33:01 10° E night (unlit)
24 Jan - 03:36:37 10° W 03:40:13 21° SW 03:43:11 10° SSE visible
24 Jan - 10:23:30 10° SSE 10:26:04 11° SE 10:28:58 10° SE daylight
24 Jan - 12:29:33 10° SSW 12:40:37 47° SE 12:57:48 10° ENE daylight
24 Jan - 14:41:29 10° WSW 14:56:29 74° NW 15:16:42 10° NE daylight
24 Jan - 16:59:05 10° W 17:15:07 34° NNW 17:31:26 10° NNE daylight
24 Jan - 19:26:20 10° NW 19:36:08 16° NNW 19:44:35 10° NNE visible
24 Jan - 21:52:33 10° NNW 21:56:58 12° N 22:00:44 10° NNE visible
25 Jan - 00:06:36 10° NNW 00:13:50 24° NNE 00:18:41 10° ENE night (unlit)
25 Jan - 02:20:30 10° WNW 02:26:50 68° SW 02:30:55 10° SE night (unlit)
25 Jan - 11:17:00 10° SSW 11:25:10 27° SE 11:37:14 10° E daylight
25 Jan - 13:26:56 10° SW 13:39:40 80° SE 13:59:19 10° ENE daylight
25 Jan - 15:41:19 10° W 15:56:59 47° NNW 16:15:45 10° NE daylight
25 Jan - 18:03:35 10° WNW 18:17:11 22° NNW 18:29:46 10° NNE daylight
25 Jan - 20:32:38 10° NNW 20:39:04 13° N 20:44:36 10° NNE visible
25 Jan - 22:50:48 10° NNW 22:58:05 18° NNE 23:03:25 10° NE visible
26 Jan - 01:04:46 10° NW 01:12:55 53° NNE 01:17:45 10° ESE night (unlit)
26 Jan - 03:21:06 10° W 03:24:17 16° SW 03:26:56 10° S visible
26 Jan - 10:06:51 10° SSE 10:10:00 12° SE 10:13:40 10° ESE daylight
26 Jan - 12:13:23 10° SW 12:23:45 52° SE 12:40:42 10° ENE daylight
26 Jan - 14:25:25 10° WSW 14:39:25 66° NW 14:59:15 10° NE daylight
26 Jan - 16:43:19 10° W 16:58:23 30° NNW 17:14:22 10° NNE daylight
26 Jan - 19:10:15 10° NW 19:20:12 16° N 19:28:54 10° NNE visible
26 Jan - 21:33:52 10° NNW 21:41:19 15° N 21:47:11 10° NE visible
26 Jan - 23:48:57 10° NW 23:58:07 32° NNE 00:03:47 10° E night (unlit)
27 Jan - 02:04:04 10° WNW 02:10:53 50° SW 02:15:12 10° SE night (unlit)
27 Jan - 11:00:51 10° SSW 11:08:39 29° SE 11:20:39 10° E daylight
27 Jan - 13:10:51 10° SW 13:22:42 89° SE 13:41:52 10° NE daylight
27 Jan - 15:25:29 10° W 15:40:05 42° NNW 15:58:22 10° NE daylight
27 Jan - 17:48:01 10° WNW 18:00:55 20° NNW 18:13:13 10° NNE daylight
27 Jan - 20:14:59 10° NNW 20:23:21 15° N 20:30:19 10° NNE visible
27 Jan - 22:32:41 10° NNW 22:42:22 23° NNE 22:48:54 10° ENE visible
